Regional Weather Roundup
Issued by NWS Cleveland, OH

Home | Current Version | Previous Version | Text Only | Print | Product List | Glossary Off
Versions: 1 2 3 4 5 6 7 8 9 10 11 12 13 14 15 16 17 18 19 20 21 22 23 24 25 26 27 28 29 30 31 32 33 34 35 36 37 38 39 40 41 42 43 44 45 46 47 48 49 50

000
ASUS41 KCLE 202200
RWRCLE
OHIO REGIONAL WEATHER ROUNDUP
NATIONAL WEATHER SERVICE WILMINGTON, OH
500 PM EST SAT DEC 20 2014

NOTE: "FAIR" INDICATES FEW OR NO CLOUDS BELOW 12,000 FEET WITH NO
SIGNIFICANT WEATHER AND/OR OBSTRUCTIONS TO VISIBILITY.

OHZ001>008-015>018-024>027-034-035-043-044-202300-
   NORTHWEST OHIO

CITY           SKY/WX    TMP DP  RH WIND       PRES   REMARKS
DEFIANCE       CLOUDY    32  22  66 CALM      30.27R
FINDLAY        CLOUDY    31  24  75 S3        30.25S
TOLEDO EXPRESS CLOUDY    31  23  72 CALM      30.27R
TOLEDO METCALF CLOUDY    31  22  69 SE5       30.28R WCI  26
LIMA           CLOUDY    33  23  66 SW3       30.25R
$$

OHZ009>014-019>023-028>033-038-089-202300-
   NORTHEAST OHIO

CITY           SKY/WX    TMP DP  RH WIND       PRES   REMARKS
CLE-HOPKINS    CLOUDY    31  21  66 CALM      30.29R
CLE-LAKEFRONT  CLOUDY    32  21  64 W5        30.27R WCI  27
CUY CO. ARPT   CLOUDY    32  25  74 W6        30.27R WCI  26
LORAIN-ELYRIA  CLOUDY    30  20  66 CALM      30.27R
ASHTABULA      CLOUDY    30  21  69 CALM      30.26R
AKRON-CANTON   CLOUDY    30  19  63 CALM      30.24R
WOOSTER        NOT AVBL
MANSFIELD      CLOUDY    29  22  75 CALM      30.24R
YOUNGSTOWN     CLOUDY    29  21  72 NE3       30.22F
$$

OHZ042-051>053-060>062-070>072-077>081-202300-
  SOUTHWEST OHIO

CITY           SKY/WX    TMP DP  RH WIND       PRES   REMARKS
CINC-COVINGTON CLOUDY    32  24  72 NW5       30.26R WCI  27
CINC-LUNKEN    CLOUDY    32  26  78 NE6       30.29R WCI  26
HAMILTON       CLOUDY    32  26  78 N3        30.29R
DAYTON         NOT AVBL
WRIGHT-PAT AFB NOT AVBL
DAYTON GENERAL CLOUDY    31  24  75 CALM      30.25R
WILMINGTON     CLOUDY    30  23  75 N3        30.25R HAZE
$$

OHZ036-037-039>041-045>050-054>059-063>069-073>076-082>088-202300-
  CENTRAL AND SOUTHEAST OHIO

CITY           SKY/WX    TMP DP  RH WIND       PRES   REMARKS
COLUMBUS       CLOUDY    31  23  72 CALM      30.26R
OSU AIRPORT    CLOUDY    30  23  75 CALM      30.26R
BOLTON FIELD   NOT AVBL
RICKENBACK AFB NOT AVBL
NEWARK         CLOUDY    32  24  72 CALM      30.25R
MARION         CLOUDY    29  25  85 CALM      30.25S FOG
LANCASTER      CLOUDY    35  25  66 NE3       30.26R
ZANESVILLE     CLOUDY    31  21  66 CALM      30.25R
NEW PHILLY     CLOUDY    32  20  61 CALM      30.26R
$$


USA.gov is the U.S. government's official web portal to all federal, state and local government web resources and services.